Location: Altmatt
(47.1333°N, 8.7000°E)
Time: 08:34:44
(UTC+00:00)

Cosmos 1076 Rocket - Pass Details

Date: 13 July 2020
Orbit: 589 x 613 km, 82.5° (Epoch: 04 August)

Event Time Altitude Azimuth Distance (km) Brightness Sun altitude
Exits shadow 21:29:51 10° 209° (SSW) 1,930 5.8 -16.0°
Maximum altitude 21:33:58 46° 283° (WNW) 804 4.4 -16.3°
Drops below altitude 10° 21:38:05 10° 358° (N) 1,933 7.1 -16.6°
Sets 21:40:22 0° 5° (N) 2,837 8.0 -16.8°
